Location: *
(43.4667°N, 11.6833°E)
Time: 11:59:10
(UTC+00:00)

DELTA 2 R/B (1) - Pass Details

Date: 19 July 2019
Orbit: 791 x 803 km, 39.6° (Epoch: 20 August)

Event Time Altitude Azimuth Distance (km) Brightness Sun altitude
Rises 20:12:39 0° 243° (WSW) 3,294 7.0 -12.8°
Reaches altitude 10° 20:15:13 10° 237° (WSW) 2,364 6.2 -13.1°
Maximum altitude 20:20:32 47° 165° (SSE) 1,051 3.8 -13.7°
Enters shadow 20:25:45 10° 93° (E) 2,332 5.6 -14.4°
